Rome, NY

8:46 PM EST on November 13, 2019 (GMT -0500)
Griffiss

Weather History for KRME - September, 2019

Change the Weather History Date:

Monday, September 9, 2019

  Actual Average Record
Temperature  
Mean Temperature 58 °F -  
Max Temperature 70 °F 74 °F 89 °F (2015)
Min Temperature 48 °F 50 °F 41 °F (1986)
Degree Days  
Heating Degree Days 7    
Growing Degree Days 8 (Base 50)    
Moisture  
Dew Point 51 °F    
Average Humidity 80    
Maximum Humidity 100    
Minimum Humidity 52    
Precipitation  
Precipitation 0.00 in - - ()
Sea Level Pressure  
Sea Level Pressure 30.28 in    
Wind  
Wind Speed 3 mph (WNW)    
Max Wind Speed 7 mph    
Max Gust Speed -    
Visibility 10 miles    
Events      
Averages and records for this station are not official NWS values.
T = Trace of Precipitation, MM = Missing Value Source: NWS Daily Summary

Daily Weather History Graph

Daily Weather History Graph

Search for Another Location

Airport or City:

Astronomy

Sep. 09, 2019 Rise Set
Actual Time 6:34 AM EDT 7:22 PM EDT
Civil Twilight 6:05 AM EDT 7:51 PM EDT
Nautical Twilight 5:31 AM EDT 8:25 PM EDT
Astronomical Twilight 4:55 AM EDT 9:01 PM EDT
Moon 5:24 PM EDT (9/9) 1:55 AM EDT (9/9)
Length of Visible Light 13h 46m
Length of Day
12h 48m
Waxing Gibbous, 83% of the Moon is Illuminated
Sep 9
Waxing Gibbous
Sep 14
Full
Sep 21
Last Quarter
Sep 28
New
Oct 5
First Quarter

Hourly Weather History & Observations

Time (EDT) Temp. Dew Point Humidity Pressure Visibility Wind Dir Wind Speed Gust Speed Precip Events Conditions
12:53 AM 53.1 °F 51.1 °F 93% 30.23 in 10.0 mi NNE 3.5 mph - N/A   Mostly Cloudy
1:53 AM 50.0 °F 50.0 °F 100% 30.24 in 10.0 mi South 3.5 mph - N/A   Clear
2:53 AM 50.0 °F 48.9 °F 96% 30.23 in 10.0 mi Calm Calm - N/A   Partly Cloudy
3:53 AM 50.0 °F 48.9 °F 96% 30.24 in 10.0 mi NNE 3.5 mph - N/A   Partly Cloudy
4:53 AM 50.0 °F 50.0 °F 100% 30.25 in 10.0 mi Calm Calm - N/A   Overcast
5:53 AM 51.1 °F 50.0 °F 96% 30.26 in 10.0 mi ENE 4.6 mph - N/A   Overcast
6:53 AM 48.0 °F 48.0 °F 100% 30.28 in 10.0 mi ESE 4.6 mph - N/A   Clear
7:53 AM 51.1 °F 50.0 °F 96% 30.30 in 10.0 mi ESE 3.5 mph - N/A   Clear
8:53 AM 55.0 °F 52.0 °F 89% 30.32 in 10.0 mi Calm Calm - N/A   Clear
9:53 AM 57.9 °F 54.0 °F 87% 30.33 in 10.0 mi SSE 4.6 mph - N/A   Clear
10:53 AM 60.1 °F 53.1 °F 78% 30.32 in 10.0 mi SSW 4.6 mph - N/A   Clear
11:53 AM 64.0 °F 51.1 °F 63% 30.30 in 10.0 mi Variable 3.5 mph - N/A   Clear
12:53 PM 66.0 °F 50.0 °F 56% 30.29 in 10.0 mi WSW 6.9 mph - N/A   Clear
1:53 PM 66.9 °F 50.0 °F 54% 30.28 in 10.0 mi WSW 3.5 mph - N/A   Partly Cloudy
2:53 PM 68.0 °F 51.1 °F 55% 30.28 in 10.0 mi WNW 6.9 mph - N/A   Clear
3:53 PM 68.0 °F 50.0 °F 52% 30.27 in 10.0 mi Variable 4.6 mph - N/A   Partly Cloudy
4:53 PM 68.0 °F 51.1 °F 55% 30.26 in 10.0 mi West 5.8 mph - N/A   Clear
5:53 PM 68.0 °F 51.1 °F 55% 30.27 in 10.0 mi WNW 5.8 mph - N/A   Scattered Clouds
6:53 PM 64.9 °F 52.0 °F 63% 30.29 in 10.0 mi WNW 5.8 mph - N/A   Mostly Cloudy
7:53 PM 60.1 °F 53.1 °F 78% 30.29 in 10.0 mi North 3.5 mph - N/A   Clear
8:53 PM 55.9 °F 52.0 °F 87% 30.31 in 10.0 mi WNW 5.8 mph - N/A   Clear
9:53 PM 55.9 °F 52.0 °F 87% 30.32 in 10.0 mi Calm Calm - N/A   Clear
10:53 PM 53.1 °F 51.1 °F 93% 30.32 in 10.0 mi Calm Calm - N/A   Clear
11:53 PM 51.1 °F 50.0 °F 96% 30.32 in 10.0 mi Calm Calm - N/A   Clear